SV1BYK-2 Weather Reports


time (UTC)temp
C
wind
direction
speed
KPH
gust
KPH
rain 1hr
cm
rain 24hr
cm
rain mn
cm
humidity
%
barometer
mb
20260507182016 20 171 3.2 6.4 0.00 0.00 0.00 44 1012.0
20260507181114 20 227 1.6 6.4 0.00 0.00 0.00 44 1012.0
20260507180004 20 193 3.2 6.4 0.00 0.00 0.00 44 1012.2
20260507175618 20 222 3.2 6.4 0.00 0.00 0.00 44 1012.1
20260507174715 20 270 3.2 9.7 0.00 0.00 0.00 46 1011.8
20260507173817 20 239 3.2 14.5 0.00 0.00 0.00 45 1012.0
20260507172915 20 261 1.6 14.5 0.00 0.00 0.00 45 1012.0
20260507172017 21 256 3.2 14.5 0.00 0.00 0.00 44 1012.1
20260507171114 21 256 6.4 12.9 0.00 0.00 0.00 42 1011.9
20260507170004 21 238 3.2 11.3 0.00 0.00 0.00 39 1011.7
20260507165613 21 230 4.8 11.3 0.00 0.00 0.00 39 1011.7
20260507164715 22 190 3.2 9.7 0.00 0.00 0.00 38 1011.3
20260507163603 21 204 3.2 11.3 0.00 0.00 0.00 41 1011.2
20260507162704 22 199 3.2 11.3 0.00 0.00 0.00 40 1011.4
20260507162018 22 156 3.2 6.4 0.00 0.00 0.00 43 1011.4
20260507161115 22 106 0.0 11.3 0.00 0.00 0.00 39 1011.6
20260507160004 22 131 1.6 11.3 0.00 0.00 0.00 39 1011.4
20260507155403 22 146 3.2 11.3 0.00 0.00 0.00 39 1011.6
20260507154504 22 244 3.2 9.7 0.00 0.00 0.00 43 1011.6
20260507153813 22 252 4.8 11.3 0.00 0.00 0.00 41 1011.8
20260507152916 22 263 3.2 12.9 0.00 0.00 0.00 45 1011.8
20260507151804 22 267 3.2 14.5 0.00 0.00 0.00 44 1012.2
20260507151115 22 234 9.7 14.5 0.00 0.00 0.00 44 1011.8
20260507150218 23 153 4.8 9.7 0.00 0.00 0.00 37 1012.0
20260507145614 23 235 3.2 14.5 0.00 0.00 0.00 35 1011.9
20260507144717 22 265 6.4 14.5 0.00 0.00 0.00 37 1011.9
20260507143814 23 265 8.0 17.7 0.00 0.00 0.00 37 1012.1
20260507142916 23 228 4.8 17.7 0.00 0.00 0.00 34 1012.0
20260507142014 23 145 6.4 14.5 0.00 0.00 0.00 31 1011.8
20260507141116 23 242 6.4 17.7 0.00 0.00 0.00 30 1011.8
20260507140213 24 237 4.8 17.7 0.00 0.00 0.00 31 1011.6
20260507135403 24 235 6.4 20.9 0.00 0.00 0.00 32 1011.6
20260507134717 25 210 4.8 17.7 0.00 0.00 0.00 31 1011.4
20260507133815 24 215 6.4 20.9 0.00 0.00 0.00 31 1011.3
20260507132917 24 228 6.4 17.7 0.00 0.00 0.00 32 1011.4
20260507131804 24 257 6.4 14.5 0.00 0.00 0.00 32 1011.4
20260507131117 24 247 3.2 14.5 0.00 0.00 0.00 33 1011.3
20260507130214 23 257 4.8 17.7 0.00 0.00 0.00 36 1011.5
20260507125616 22 258 11.3 17.7 0.00 0.00 0.00 45 1011.7
20260507124503 22 245 6.4 20.9 0.00 0.00 0.00 46 1011.8
20260507123603 22 256 4.8 17.7 0.00 0.00 0.00 45 1012.0
20260507122913 22 261 9.7 14.5 0.00 0.00 0.00 46 1011.9
20260507121804 22 245 6.4 14.5 0.00 0.00 0.00 45 1012.1
20260507121117 23 250 3.2 17.7 0.00 0.00 0.00 42 1012.0
20260507120004 22 226 3.2 12.9 0.00 0.00 0.00 48 1012.0
20260507115616 23 188 3.2 12.9 0.00 0.00 0.00 51 1011.9
20260507114503 23 223 3.2 24.1 0.00 0.00 0.00 53 1012.1
20260507113816 23 157 4.8 14.5 0.00 0.00 0.00 52 1012.2
20260507112703 22 231 8.0 20.9 0.00 0.00 0.00 50 1012.3
20260507111804 22 229 6.4 20.9 0.00 0.00 0.00 49 1012.5
20260507111113 22 239 9.7 17.7 0.00 0.00 0.00 50 1012.5
20260507110004 22 233 4.8 17.7 0.00 0.00 0.00 52 1012.3
20260507105403 22 129 6.4 17.7 0.00 0.00 0.00 50 1012.2
20260507104714 22 238 6.4 27.4 0.00 0.00 0.00 53 1012.2
20260507103817 22 261 4.8 20.9 0.00 0.00 0.00 58 1012.3
20260507102914 22 198 6.4 17.7 0.00 0.00 0.00 58 1012.0
20260507101804 23 229 4.8 14.5 0.00 0.00 0.00 60 1011.7
20260507101114 23 127 6.4 11.3 0.00 0.00 0.00 60 1011.9
20260507100004 23 230 8.0 14.5 0.00 0.00 0.00 56 1011.9
20260507095403 22 227 4.8 14.5 0.00 0.00 0.00 59 1012.0
20260507094715 23 219 4.8 12.9 0.00 0.00 0.00 54 1011.9
20260507093603 23 122 6.4 12.9 0.00 0.00 0.00 54 1012.0
20260507092703 23 204 3.2 12.9 0.00 0.00 0.00 51 1012.1
20260507091804 23 227 3.2 14.5 0.00 0.00 0.00 46 1011.8
20260507091114 23 156 4.8 14.5 0.00 0.00 0.00 47 1012.0
20260507090217 23 127 3.2 9.7 0.00 0.00 0.00 46 1011.8
20260507085403 23 114 3.2 9.7 0.00 0.00 0.00 44 1011.9
20260507084503 23 124 3.2 11.3 0.00 0.00 0.00 45 1011.8
20260507083813 23 149 6.4 11.3 0.00 0.00 0.00 44 1011.9
20260507082704 23 198 3.2 6.4 0.00 0.00 0.00 44 1011.8
20260507081804 23 138 3.2 6.4 0.00 0.00 0.00 42 1011.7
20260507080903 23 206 3.2 9.7 0.00 0.00 0.00 45 1011.7
20260507080004 22 184 3.2 9.7 0.00 0.00 0.00 43 1011.7
20260507075614 22 125 3.2 9.7 0.00 0.00 0.00 44 1011.8
20260507074503 22 246 3.2 12.9 0.00 0.00 0.00 45 1011.6
20260507073813 21 243 6.4 12.9 0.00 0.00 0.00 46 1011.6
20260507072704 22 194 1.6 6.4 0.00 0.00 0.00 45 1011.5
20260507072013 22 152 3.2 6.4 0.00 0.00 0.00 47 1011.5
20260507071115 22 174 3.2 9.7 0.00 0.00 0.00 49 1011.5
20260507070213 21 128 3.2 9.7 0.00 0.00 0.00 49 1011.6
20260507065403 21 213 3.2 9.7 0.00 0.00 0.00 50 1011.6
20260507064717 22 140 3.2 6.4 0.00 0.00 0.00 50 1011.9
20260507063814 22 169 1.6 9.7 0.00 0.00 0.00 49 1011.6
20260507062704 21 101 1.6 6.4 0.00 0.00 0.00 51 1011.8
20260507061803 21 102 3.2 6.4 0.00 0.00 0.00 50 1011.4
20260507061116 21 91 3.2 3.2 0.00 0.00 0.00 49 1011.5
20260507060213 21 359 0.0 3.2 0.00 0.00 0.00 51 1011.5
20260507055403 21 315 0.0 3.2 0.00 0.00 0.00 50 1011.1
20260507054717 21 315 0.0 3.2 0.00 0.00 0.00 52 1011.2
20260507053815 20 315 1.6 3.2 0.00 0.00 0.00 53 1011.2
20260507052917 19 292 0.0 3.2 0.00 0.00 0.00 52 1010.9
20260507051803 18 292 1.6 3.2 0.00 0.00 0.00 53 1010.9
20260507051117 18 308 0.0 3.2 0.00 0.00 0.00 55 1010.8
20260507050214 17 320 1.6 3.2 0.00 0.00 0.00 56 1010.8
20260507045403 17 323 1.6 6.4 0.00 0.00 0.00 57 1010.8
20260507044503 16 319 0.0 3.2 0.00 0.00 0.00 57 1010.8
20260507043604 16 315 1.6 3.2 0.00 0.00 0.00 58 1010.8
20260507042704 16 315 0.0 3.2 0.00 0.00 0.00 60 1010.7
20260507041803 16 315 0.0 3.2 0.00 0.00 0.00 60 1010.7
20260507040903 15 318 0.0 3.2 0.00 0.00 0.00 61 1010.8
20260507040215 15 321 1.6 3.2 0.00 0.00 0.00 61 1010.8
20260507035616 15 327 0.0 3.2 0.00 0.00 0.00 61 1010.8
20260507034503 15 315 0.0 3.2 0.00 0.00 0.00 61 1011.0
20260507033604 15 315 1.6 3.2 0.00 0.00 0.00 60 1010.7
20260507032913 15 315 0.0 3.2 0.00 0.00 0.00 60 1010.6
20260507032016 15 315 0.0 3.2 0.00 0.00 0.00 60 1010.7
20260507031113 15 325 1.6 3.2 0.00 0.00 0.00 60 1010.9
20260507030004 15 337 0.0 3.2 0.00 0.00 0.00 61 1010.5
20260507025617 15 337 0.0 3.2 0.00 0.00 0.00 60 1010.6
20260507024503 15 337 0.0 3.2 0.00 0.00 0.00 60 1010.7
20260507023604 15 337 0.0 3.2 0.00 0.00 0.00 60 1010.4
20260507022914 15 0 0.0 0.0 0.00 0.00 0.00 60 1010.7
20260507022016 15 337 0.0 3.2 0.00 0.00 0.00 59 1010.5
20260507020903 15 0 0.0 0.0 0.00 0.00 0.00 59 1010.6
20260507020004 15 337 0.0 3.2 0.00 0.00 0.00 59 1010.2
20260507015618 15 337 0.0 3.2 0.00 0.00 0.00 59 1010.3
20260507014715 16 332 0.0 3.2 0.00 0.00 0.00 58 1010.2
20260507013817 16 315 1.6 3.2 0.00 0.00 0.00 57 1010.3
20260507012704 16 315 0.0 3.2 0.00 0.00 0.00 57 1010.0
20260507011803 16 315 0.0 3.2 0.00 0.00 0.00 57 1010.1
20260507010004 16 315 0.0 3.2 0.00 0.00 0.00 56 1009.8
20260507005403 16 315 0.0 3.2 0.00 0.00 0.00 56 1009.8
20260507004503 16 315 0.0 3.2 0.00 0.00 0.00 55 1009.9
20260507003818 16 310 1.6 6.4 0.00 0.00 0.00 55 1009.6
20260507002915 17 292 1.6 9.7 0.00 0.00 0.00 55 1009.7
20260507002018 16 292 1.6 9.7 0.00 0.00 0.00 55 1009.8
20260507000903 16 292 0.0 3.2 0.00 0.00 0.00 56 1009.9
20260507000004 16 292 0.0 3.2 0.00 0.00 0.00 57 1010.0
20260506235403 16 292 0.0 3.2 0.00 0.00 0.00 57 1009.6
20260506234716 16 0 0.0 0.0 0.00 0.00 0.00 56 1009.9
20260506233604 17 292 0.0 3.2 0.00 0.00 0.00 55 1010.3
20260506232916 17 0 0.0 0.0 0.00 0.00 0.00 56 1010.3
20260506231803 17 292 0.0 3.2 0.00 0.00 0.00 55 1010.5
20260506230903 17 292 0.0 3.2 0.00 0.00 0.00 55 1010.5
20260506230213 17 292 0.0 3.2 0.00 0.00 0.00 55 1010.2
20260506225614 17 292 0.0 3.2 0.00 0.00 0.00 54 1010.5
20260506224717 17 292 0.0 3.2 0.00 0.00 0.00 54 1010.6
20260506223814 17 292 1.6 3.2 0.00 0.00 0.00 54 1010.7
20260506222704 18 0 0.0 0.0 0.00 0.00 0.00 54 1010.4
20260506222014 18 292 0.0 3.2 0.00 0.00 0.00 53 1010.5
20260506221116 18 292 1.6 3.2 0.00 0.00 0.00 52 1010.6
20260506220213 18 292 1.6 3.2 0.00 0.00 0.00 54 1010.5
20260506215403 18 0 0.0 0.0 0.00 0.00 0.00 54 1010.7
20260506214504 18 0 0.0 0.0 0.00 0.00 0.00 53 1010.7
20260506213604 18 0 0.0 0.0 0.00 0.00 0.00 52 1010.8
20260506212703 18 292 0.0 3.2 0.00 0.00 0.00 52 1010.8
20260506211803 19 292 0.0 3.2 0.00 0.00 0.00 51 1010.7
20260506211117 18 292 0.0 3.2 0.00 0.00 0.00 51 1010.8
20260506210219 18 0 0.0 0.0 0.00 0.00 0.00 51 1010.8
20260506205403 18 292 0.0 3.2 0.00 0.00 0.00 50 1011.0
20260506204504 19 292 0.0 3.2 0.00 0.00 0.00 50 1011.0
20260506203604 19 286 1.6 6.4 0.00 0.00 0.00 49 1010.9
20260506202918 19 285 3.2 6.4 0.00 0.00 0.00 49 1011.1
20260506201804 19 262 3.2 6.4 0.00 0.00 0.00 48 1010.9
20260506200903 20 264 3.2 6.4 0.00 0.00 0.00 47 1011.0
20260506200004 20 282 3.2 6.4 0.00 0.00 0.00 45 1011.0
20260506195616 20 283 4.8 6.4 0.00 0.00 0.00 45 1010.7
20260506194504 20 270 6.4 9.7 0.00 0.00 0.00 43 1010.6
20260506193603 20 267 3.2 6.4 0.00 0.00 0.00 42 1010.5
20260506192703 20 277 4.8 6.4 0.00 0.00 0.00 42 1010.5
20260506191803 21 283 4.8 6.4 0.00 0.00 0.00 42 1010.5
20260506191113 21 272 4.8 6.4 0.00 0.00 0.00 42 1010.2
20260506190004 21 292 3.2 6.4 0.00 0.00 0.00 42 1010.2
20260506185617 21 292 3.2 6.4 0.00 0.00 0.00 42 1010.1
20260506184714 21 292 3.2 6.4 0.00 0.00 0.00 42 1010.2
20260506183604 21 292 3.2 6.4 0.00 0.00 0.00 42 1009.9
20260506182703 21 290 4.8 6.4 0.00 0.00 0.00 42 1009.8